STARLINK BD

Last updated on Wed Jun 21 2023 00:02:05 GMT+0000 (Coordinated Universal Time)

1 56927U 23083BD 23171.66667824 -.00837965 00000+0 -63093-2 0 9996 2 56927 43.0058 94.1587 0001549 264.0448 23.6104 15.73957942 1304

Satellite not in orbit